Tracking 27111 objects as of 28-Mar-2023
HD Live streaming from Space Station
objects crossing your sky now

STARLINK-5502

Track STARLINK-5502 now!
10-day predictions
STARLINK-5502 is classified as:


NORAD ID: 55644
Int'l Code: 2023-021S
Perigee: 364.0 km
Apogee: 368.5 km
Inclination: 70.0 °
Period: 91.7 minutes
Semi major axis: 6737 km
RCS: Unknown
Launch date: February 17, 2023
Source: United States (US)
Launch site: AIR FORCE WESTERN TEST RANGE (AFWTR)
Your satellite tracking list
Your tracking list is empty




NASA's NSSDC Master Catalog

Two Line Element Set (TLE):
1 55644U 23021S   23087.21082471  .00002263  00000-0  20574-4 0  9992
2 55644  70.0017  41.8637 0003333 266.0912  93.9902 15.69933097  6570
Source of the keplerian elements: AFSPC